Temp
15 15 15 14 14 14 14 14 13 13 12 12 12 11 11 11 11 11 11 11 11 11 11 11 11 11 11 11 11 11 11 11 11 11 11 11 11 11 11 11 11 11
14 14 14 13 13 13 13 13 12 12 12 11 11 11 11 11 11 11 11 11 11 11 10 10 11 11 11 11 11 11 11 11 11 11 11 11 11 11 11 11 11 11
13 13 13 13 13 12 12 12 12 11 11 11 11 11 11 11 11 11 11 11 11 11 10 10 10 10 11 11 11 11 11 11 11 11 11 11 11 11 10 10 11 10
13 13 12 12 12 12 12 12 11 11 11 11 11 11 11 11 11 11 11 11 11 11 10 10 10 10 10 10 10 10 11 11 11 11 11 11 10 10 10 10 10 10
13 12 12 12 12 12 11 11 11 11 11 11 11 11 11 11 11 11 11 11 11 11 11 10 10 10 10 10 10 10 10 10 10 10 10 10 10 10 10 10 10 10
12 12 12 12 12 11 11 11 11 11 11 11 11 11 11 11 11 11 11 11 11 11 10 10 10 10 10 10 10 10 10 10 10 10 10 10 10 10 10 10 10 10
12 12 11 11 11 11 11 11 11 11 11 11 11 11 11 11 11 11 11 11 11 10 10 10 10 10 9 10 10 10 10 10 10 10 10 10 10 10 10 9 10 10
11 11 11 11 11 11 11 11 11 11 11 11 11 11 11 11 11 11 11 11 10 10 9 9 9 9 9 9 9 10 10 10 10 10 10 10 10 10 10 9 9 9
11 11 11 11 11 11 11 11 11 11 11 11 11 11 11 11 11 11 10 10 10 9 9 8 8 8 8 8 9 9 10 10 10 10 10 10 10 9 9 9 9 9
11 11 11 11 11 11 11 11 11 11 11 11 11 11 11 11 10 10 10 10 9 9 8 7 7 7 7 8 8 8 9 9 9 9 9 9 9 9 9 9 9 9
11 11 11 11 11 11 11 11 11 11 11 11 11 11 11 10 10 10 9 9 8 8 7 7 6 6 6 7 7 8 9 9 9 9 9 9 9 9 9 9 9 8
11 11 11 11 11 11 11 11 11 11 11 11 11 11 10 10 10 10 9 8 8 7 6 6 6 6 6 6 7 7 8 9 9 9 9 9 9 9 8 8 8 8
11 11 11 11 11 11 11 11 11 11 11 11 11 11 10 10 10 9 8 8 7 6 6 5 6 6 6 6 7 7 8 9 9 9 9 9 9 9 8 8 8 8
11 11 11 11 11 11 11 11 10 10 10 10 10 10 10 10 10 9 8 7 7 6 5 5 5 6 6 6 7 7 8 8 9 9 9 9 9 9 8 8 8 8
11 11 11 11 11 11 10 10 10 10 10 10 10 10 10 10 9 9 8 7 7 6 5 5 5 5 5 6 6 7 7 8 8 9 9 9 9 9 9 8 8 8
11 11 11 11 11 10 10 10 10 10 10 9 9 9 9 9 9 9 8 7 6 5 5 5 5 5 5 6 6 7 7 8 8 8 9 9 9 9 9 9 8 8
11 11 11 11 10 10 10 10 10 9 9 9 9 9 9 9 9 8 8 7 6 5 5 5 5 5 6 6 6 7 7 8 8 8 9 9 9 9 9 9 8 8
11 11 11 11 11 10 10 10 9 9 9 9 9 9 9 9 9 8 8 7 6 5 5 5 5 5 6 6 7 7 7 8 8 8 9 9 9 9 9 8 8 7
11 11 11 11 10 10 10 10 10 9 9 9 9 9 8 8 8 8 8 7 6 5 5 5 5 5 6 6 7 7 8 8 8 8 9 9 9 9 9 8 8 7
11 11 11 10 10 10 10 10 10 10 9 9 9 9 8 8 8 8 8 7 6 6 5 5 5 5 6 7 7 7 8 8 8 8 9 9 9 9 9 9 8 7
11 11 10 10 10 10 10 10 10 10 10 9 9 9 9 8 8 8 8 7 7 6 5 5 5 6 6 7 7 7 8 8 8 8 8 9 9 9 9 9 8 7
11 11 11 11 11 10 10 10 10 10 10 9 9 9 9 8 8 7 7 7 7 6 6 6 6 6 6 7 7 7 7 7 7 8 8 8 8 9 9 9 8 8
11 11 11 11 11 10 10 10 10 10 10 10 9 9 9 8 8 7 7 7 7 7 6 6 6 6 6 6 7 7 7 7 7 7 7 7 7 8 8 8 8 8
11 11 11 11 11 10 10 10 10 10 10 10 10 9 9 9 8 8 7 7 7 7 6 6 6 6 6 6 6 6 6 6 6 6 6 6 6 7 8 8 8 8
11 11 11 11 10 10 10 10 10 10 10 10 10 10 10 9 9 8 8 7 7 7 7 6 6 6 6 6 6 6 6 6 6 5 5 5 6 6 7 8 8 7
11 11 11 11 10 10 10 10 10 10 10 10 10 10 10 10 9 9 8 8 7 7 7 7 6 6 6 6 6 6 6 5 5 5 5 5 5 6 7 7 7 7
Height
841 841 841 842 843 844 845 846 848 849 849 849 849 849 849 849 849 848 848 847 846 846 845 845 844 843 843 843 843 843 842 842 842 842 842 842 842 841 841 840 839 839
841 841 842 843 844 846 847 848 849 849 850 850 850 850 850 850 849 849 849 848 847 847 846 846 845 845 844 844 844 844 844 843 843 844 843 843 843 842 842 841 840 840
842 842 844 845 846 848 849 849 850 850 850 850 850 850 850 850 850 850 849 849 849 848 848 847 846 846 846 845 845 845 845 845 845 845 845 844 844 844 843 842 842 841
843 844 846 847 848 849 849 850 850 850 850 851 851 851 851 851 851 850 850 850 850 849 849 848 848 847 847 847 847 846 846 846 846 846 846 845 845 844 844 844 843 842
845 846 847 848 848 849 849 849 850 850 851 851 851 851 852 852 852 851 852 851 851 851 850 849 849 849 849 848 848 848 847 847 847 847 847 846 846 845 845 845 844 843
845 846 847 848 848 849 849 849 850 851 851 851 852 852 852 852 852 852 852 852 852 852 851 851 850 850 850 849 849 849 849 849 848 848 848 847 847 846 846 846 845 844
846 847 847 848 848 849 849 850 851 851 851 852 852 852 853 853 853 853 853 853 853 852 852 852 852 851 851 850 850 850 850 850 849 849 849 848 848 847 847 847 846 846
846 847 847 848 848 849 850 850 851 851 852 852 852 853 853 853 854 854 854 854 853 853 853 853 853 852 852 852 852 852 851 851 850 850 850 849 849 848 848 848 847 847
846 846 847 848 849 850 850 851 851 852 852 852 853 853 854 854 854 854 855 854 854 854 854 854 853 853 853 853 852 852 852 852 852 851 851 850 850 849 849 849 848 848
846 846 848 848 849 850 850 851 852 852 852 853 853 854 854 855 855 855 855 855 855 855 855 854 854 854 854 853 853 853 853 853 853 852 852 851 851 851 850 850 849 849
846 847 848 849 849 850 851 851 852 852 853 853 854 854 854 855 856 856 856 856 856 856 856 856 855 854 854 854 854 854 854 854 854 853 853 852 852 852 851 851 850 850
846 847 848 849 849 850 851 852 852 853 853 854 854 855 855 856 856 857 857 857 857 858 857 857 856 855 854 854 854 854 854 855 855 854 853 853 853 852 852 852 851 851
846 847 848 849 850 851 852 852 853 853 854 854 855 855 856 857 857 858 858 859 859 859 858 857 856 855 855 855 854 854 854 854 855 854 854 854 853 853 853 852 852 852
846 847 848 849 850 851 852 853 854 854 854 855 855 856 857 858 858 859 860 860 860 860 858 858 857 856 856 855 855 855 854 854 855 855 855 854 854 854 853 853 853 852
846 847 848 850 851 852 853 854 854 855 855 855 856 857 858 859 860 860 861 861 861 860 859 858 858 857 857 857 856 856 855 854 855 855 855 855 855 854 853 853 853 852
846 847 849 850 851 852 853 854 855 855 856 856 857 858 859 860 861 862 862 862 861 861 860 860 859 859 859 858 857 857 856 856 855 856 856 855 855 854 854 853 853 852
846 847 849 850 852 853 854 855 856 856 856 857 858 859 860 861 862 863 863 862 862 862 862 861 861 860 860 859 858 858 857 856 856 856 856 856 855 854 854 854 853 852
846 847 849 851 852 853 854 855 856 857 858 858 859 860 861 862 863 864 863 863 863 863 863 862 862 861 861 860 859 858 858 857 856 857 857 856 856 855 854 854 853 852
846 847 849 851 852 854 855 856 857 858 859 859 860 861 861 862 863 864 864 865 865 865 865 864 863 862 861 861 860 859 859 858 857 857 857 856 856 855 854 853 852 852
846 848 849 852 853 855 856 857 858 859 859 860 860 861 861 862 864 864 865 866 866 866 866 865 864 863 862 861 860 859 859 858 857 857 857 856 856 855 854 853 852 851
846 848 850 852 854 855 857 858 859 859 860 860 861 861 862 863 864 865 866 867 867 867 868 867 865 864 863 862 861 860 859 859 858 858 857 857 856 855 854 853 851 851
846 848 850 852 854 855 856 858 859 859 860 860 861 862 863 864 865 866 867 868 868 868 868 868 867 865 864 863 862 861 860 859 859 858 857 856 856 855 854 853 851 851
846 848 850 852 854 855 856 858 858 859 860 861 861 862 863 865 866 866 867 868 869 869 869 868 867 866 865 864 863 862 861 859 859 859 858 856 855 855 854 853 851 850
845 847 849 852 854 855 856 857 858 859 860 861 862 863 864 865 866 867 868 868 869 869 869 868 868 867 866 865 864 863 861 860 860 859 858 857 855 854 854 853 851 850
845 847 849 851 853 854 856 857 858 859 860 861 862 863 864 865 866 867 868 869 869 869 869 869 868 867 867 866 865 864 862 861 861 860 859 858 856 855 854 853 852 850
844 847 849 851 853 854 855 857 858 859 860 860 862 863 864 865 866 867 868 869 869 869 869 869 868 867 867 866 865 864 863 862 861 861 859 858 857 855 854 853 852 850
Wind_Speed
11 11 11 11 11 10 9 10 10 10 10 10 10 11 11 11 11 11 12 13 13 13 13 14 14 14 14 14 14 14 15 15 14 14 15 15 15 15 15 16 16 17
11 12 12 12 11 11 11 11 11 11 11 11 11 11 11 11 11 12 12 12 13 13 13 14 14 14 14 14 14 14 15 15 15 14 14 15 15 15 16 15 16 17
12 12 13 13 13 13 12 12 11 11 12 12 11 11 11 11 11 12 12 12 13 13 14 14 14 14 14 14 13 13 14 15 15 14 13 14 15 15 15 16 15 17
14 13 14 14 14 14 13 12 12 12 12 12 11 11 11 11 11 12 12 12 12 13 13 14 14 14 14 13 13 13 14 14 14 14 13 14 15 14 15 15 15 16
15 15 14 14 14 14 14 14 14 13 13 12 12 11 11 11 11 11 12 12 12 12 13 13 13 13 13 13 14 13 13 14 14 14 14 14 15 14 15 15 15 16
16 15 14 14 14 15 15 15 14 13 13 13 12 12 12 12 11 11 12 12 12 13 13 13 13 13 13 13 13 13 13 14 14 14 14 14 14 14 14 15 15 16
16 15 15 15 15 15 16 15 14 14 13 13 13 13 12 12 12 12 12 12 13 13 13 13 13 13 13 13 13 13 13 13 13 13 14 13 14 14 14 15 15 15
16 15 15 16 16 16 15 15 14 14 13 13 13 13 12 12 12 12 12 13 13 14 14 14 13 13 13 13 13 13 12 13 13 13 13 13 13 14 15 15 15 15
16 16 16 16 16 16 15 15 14 14 13 13 13 13 13 13 13 12 13 13 14 14 14 14 14 13 13 13 13 12 12 12 13 12 13 13 14 14 14 15 14 15
17 16 16 16 16 16 15 15 15 14 14 13 13 13 13 13 13 13 13 14 14 14 15 15 14 13 13 13 13 12 12 12 12 12 12 13 13 14 14 14 15 16
17 17 16 16 16 16 15 15 15 14 14 14 13 13 13 13 13 13 14 14 14 14 15 15 15 13 13 13 12 11 11 11 11 11 11 12 13 13 14 14 15 15
17 17 17 16 16 16 15 15 15 14 14 14 13 13 13 13 13 13 14 14 14 14 14 15 15 14 13 12 10 10 10 10 11 11 11 12 12 12 13 14 14 14
17 16 16 16 16 16 15 15 14 14 14 14 13 13 13 13 13 13 13 14 14 15 15 15 16 16 15 13 11 10 10 11 10 10 11 11 11 12 12 12 13 12
17 16 16 16 16 16 15 15 15 14 14 14 14 14 13 13 13 13 13 13 14 15 16 16 16 16 16 15 12 10 10 11 10 10 11 11 10 10 10 11 12 13
17 17 17 16 16 15 15 15 15 15 15 14 14 14 13 13 13 13 13 13 14 15 16 17 16 15 15 14 13 11 11 10 10 9 9 10 10 9 9 10 11 13
17 17 17 16 16 15 15 15 15 15 15 14 14 14 13 12 12 13 13 14 15 15 16 18 16 14 12 11 11 11 11 10 10 10 9 9 11 9 9 10 10 12
18 17 17 16 16 15 15 15 14 15 15 14 14 14 13 12 11 12 13 14 16 16 16 17 16 12 10 10 9 9 9 9 10 10 9 9 11 11 10 11 12 14
18 18 17 16 16 15 15 15 14 14 14 14 14 13 12 12 11 11 12 12 15 17 17 17 16 12 9 9 9 8 9 9 9 9 8 8 11 11 10 10 12 15
18 18 17 16 16 16 15 15 14 14 14 14 14 13 13 12 11 11 11 10 12 16 17 18 17 13 8 7 8 8 9 9 8 8 7 8 9 11 10 8 10 14
18 18 18 17 17 16 15 14 14 14 13 13 13 13 13 12 11 10 10 10 10 13 17 18 18 16 11 7 7 9 10 10 10 8 8 8 8 12 12 8 10 14
19 19 18 17 16 16 15 14 13 13 13 13 12 13 13 12 11 10 9 9 9 10 15 18 19 18 14 9 8 9 11 12 12 9 9 8 8 12 13 9 11 15
20 19 18 17 16 16 15 14 13 13 13 13 13 12 12 12 11 10 9 8 8 8 12 17 19 19 17 13 10 9 12 14 13 11 10 11 10 13 13 10 12 15
20 19 19 17 17 16 15 14 14 13 12 12 12 12 11 11 11 11 10 9 7 6 8 15 19 19 18 17 14 11 12 14 14 13 13 13 13 14 13 12 13 14
20 19 19 18 17 16 15 14 13 12 11 11 11 11 10 10 10 10 10 10 9 7 5 8 15 18 18 18 17 14 13 13 14 15 15 15 15 15 13 12 14 14
21 20 19 18 17 16 15 14 13 12 12 11 11 10 10 10 9 9 8 7 8 8 6 4 8 13 16 18 17 15 14 14 13 15 16 16 16 17 15 13 14 15
21 20 19 18 17 16 15 14 12 11 10 10 10 10 10 9 8 8 7 6 5 5 5 4 4 8 12 16 17 16 15 15 13 14 16 17 16 17 17 15 15 16
Wind_Direction
125 123 119 115 113 114 115 113 110 106 98 93 88 77 70 64 60 57 53 51 51 49 49 49 49 50 48 48 50 48 45 43 42 39 36 35 33 30 27 24 22 16
121 122 121 118 118 119 118 118 113 105 97 93 88 80 74 67 63 61 57 53 50 49 50 50 49 49 48 48 50 48 43 40 41 39 36 34 32 31 29 24 24 22
120 121 122 122 123 122 119 116 109 101 96 92 86 82 76 70 65 62 59 56 51 49 48 48 49 48 47 48 48 48 43 39 39 38 37 35 32 31 29 25 26 26
124 124 123 125 124 122 118 113 106 100 95 91 86 82 78 73 68 63 60 57 53 50 47 46 48 46 47 48 46 47 44 40 39 39 39 36 33 32 29 25 26 26
126 125 125 125 122 118 114 107 103 100 96 92 89 84 79 76 71 65 61 58 54 53 49 46 46 46 46 46 45 45 44 40 38 38 39 37 33 33 29 24 24 24
126 125 124 121 118 114 109 104 102 99 95 92 87 83 80 77 72 67 63 60 56 53 51 47 45 46 46 46 46 44 41 40 38 37 39 37 34 34 30 26 24 24
124 122 119 115 112 109 105 102 100 98 95 92 87 83 80 76 73 69 64 60 57 53 51 48 45 45 45 44 44 43 42 40 37 37 38 35 34 34 30 28 25 24
121 118 115 112 109 106 104 102 99 97 95 91 87 82 79 76 73 70 64 60 56 53 50 47 45 45 44 42 41 42 41 39 36 37 36 33 35 34 29 28 26 25
119 116 113 111 109 106 105 103 100 99 96 91 87 83 79 77 73 70 66 60 56 51 47 44 43 43 42 40 39 38 38 38 36 36 35 33 35 35 30 27 25 27
118 116 114 111 109 107 105 104 100 98 95 92 89 85 81 78 74 70 65 60 56 49 43 41 39 40 43 41 38 39 40 37 35 36 36 34 34 36 33 26 24 28
118 116 114 111 109 107 104 103 100 97 94 92 90 86 82 79 75 70 65 60 54 47 42 39 38 41 48 46 40 39 39 36 35 36 37 36 35 35 34 29 25 26
119 117 114 111 109 107 104 102 99 97 94 91 89 87 83 80 76 71 66 59 53 47 42 40 41 46 53 55 50 42 38 35 33 36 38 37 35 36 36 30 24 22
120 117 115 112 109 107 105 102 99 96 92 89 89 87 84 81 79 74 67 61 54 45 41 43 47 47 49 55 57 50 45 38 30 33 38 35 32 34 33 27 22 18
121 118 116 113 110 108 105 101 98 95 91 88 87 85 83 82 82 79 72 64 54 44 42 46 49 45 43 46 50 48 48 42 31 30 34 33 29 26 26 25 21 13
122 120 117 115 112 108 104 102 99 95 92 89 87 86 84 84 84 81 75 66 55 46 42 45 46 42 37 38 39 42 45 42 34 28 28 28 22 18 21 22 16 9
124 123 120 116 113 109 106 103 99 97 94 91 89 87 85 85 84 82 76 66 57 49 42 42 42 40 39 38 35 36 38 38 34 24 21 24 14 7 16 16 12 14
128 126 122 118 115 111 108 105 101 97 94 92 90 88 87 88 86 83 78 66 57 50 43 39 36 36 43 46 44 42 35 33 34 23 18 23 11 1 12 18 13 13
131 128 124 121 118 115 112 109 104 100 98 95 92 90 89 89 86 84 83 70 55 48 42 39 35 33 40 45 48 49 35 28 31 25 17 18 10 360 9 20 11 4
134 130 127 124 120 119 116 113 109 105 102 98 95 93 89 86 85 84 85 77 58 45 41 40 36 32 33 43 45 43 36 29 26 20 11 10 10 358 357 16 17 6
136 133 129 126 125 125 123 119 116 111 108 103 98 93 88 85 85 85 86 86 70 49 42 41 39 35 34 43 45 40 40 34 23 14 3 3 12 -0 350 7 23 9
137 134 134 134 135 133 128 125 121 117 113 108 102 97 93 89 87 86 88 91 84 61 45 40 41 40 39 44 44 40 42 34 20 13 4 355 7 3 351 358 16 6
140 141 141 141 139 134 130 127 124 120 116 111 106 102 98 93 88 85 86 92 94 77 50 42 43 43 42 44 42 39 45 36 19 13 5 347 349 3 358 355 2 360
147 146 144 142 139 136 132 129 126 123 121 118 115 112 109 105 97 88 86 91 100 98 58 43 43 42 39 40 41 41 45 36 19 11 4 348 345 357 358 353 352 356
149 146 144 143 142 138 134 133 130 127 125 122 119 119 119 119 114 105 96 91 95 108 94 43 39 39 34 32 35 38 44 39 22 11 4 356 350 350 350 353 352 352
148 147 146 144 141 137 136 135 132 130 131 129 128 128 127 126 128 128 122 108 97 99 105 67 29 29 27 24 24 30 40 40 24 10 4 358 350 344 345 353 353 347
149 148 146 143 140 139 137 137 136 137 139 138 135 132 130 129 131 138 144 149 139 115 105 88 29 14 18 19 17 22 33 35 24 10 3 355 348 343 341 345 350 347